Year,Month,Day,Hour,Minute,Value (Times are PST for temperature in C)
2014,08,22,00,00,16.70
2014,08,22,00,01,16.70
2014,08,22,00,02,16.80
2014,08,22,00,03,16.80
2014,08,22,00,04,16.80
2014,08,22,00,05,16.80
2014,08,22,00,06,16.80
2014,08,22,00,07,16.80
2014,08,22,00,08,16.80
2014,08,22,00,09,16.80
2014,08,22,00,10,16.80
2014,08,22,00,11,16.80
2014,08,22,00,12,16.70
2014,08,22,00,13,16.70
2014,08,22,00,14,16.70
2014,08,22,00,15,16.70
2014,08,22,00,16,16.70
2014,08,22,00,17,16.80
2014,08,22,00,18,16.80
2014,08,22,00,19,16.80
2014,08,22,00,20,16.80
2014,08,22,00,21,16.90
2014,08,22,00,22,16.90
2014,08,22,00,23,16.90
2014,08,22,00,24,16.80
2014,08,22,00,25,16.80
2014,08,22,00,26,16.80
2014,08,22,00,27,16.80
2014,08,22,00,28,16.70
2014,08,22,00,29,16.70
2014,08,22,00,30,16.70
2014,08,22,00,31,16.70
2014,08,22,00,32,16.60
2014,08,22,00,33,16.60
2014,08,22,00,34,16.60
2014,08,22,00,35,16.60
2014,08,22,00,36,16.50
2014,08,22,00,37,16.50
2014,08,22,00,38,16.50
2014,08,22,00,39,16.60
2014,08,22,00,40,16.60
2014,08,22,00,41,16.60
2014,08,22,00,42,16.60
2014,08,22,00,43,16.60
2014,08,22,00,44,16.70
2014,08,22,00,45,16.70
2014,08,22,00,46,16.70
2014,08,22,00,47,16.70
2014,08,22,00,48,16.70
2014,08,22,00,49,16.70
2014,08,22,00,50,16.70
2014,08,22,00,51,16.70
2014,08,22,00,52,16.70
2014,08,22,00,53,16.60
2014,08,22,00,54,16.60
2014,08,22,00,55,16.70
2014,08,22,00,56,16.70
2014,08,22,00,57,16.70
2014,08,22,00,58,16.70
2014,08,22,00,59,16.70
2014,08,22,01,00,16.80
2014,08,22,01,01,16.80
2014,08,22,01,02,16.80
2014,08,22,01,03,16.80
2014,08,22,01,04,16.80
2014,08,22,01,05,16.80
2014,08,22,01,06,16.80
2014,08,22,01,07,16.80
2014,08,22,01,08,16.80
2014,08,22,01,09,16.80
2014,08,22,01,10,16.80
2014,08,22,01,11,16.70
2014,08,22,01,12,16.70
2014,08,22,01,13,16.60
2014,08,22,01,14,16.60
2014,08,22,01,15,16.60
2014,08,22,01,16,16.60
2014,08,22,01,17,16.60
2014,08,22,01,18,16.60
2014,08,22,01,19,16.70
2014,08,22,01,20,16.70
2014,08,22,01,21,16.70
2014,08,22,01,22,16.80
2014,08,22,01,23,16.80
2014,08,22,01,24,16.90
2014,08,22,01,25,16.90
2014,08,22,01,26,17.00
2014,08,22,01,27,17.10
2014,08,22,01,28,17.10
2014,08,22,01,29,17.20
2014,08,22,01,30,17.20
2014,08,22,01,31,17.30
2014,08,22,01,32,17.30
2014,08,22,01,33,17.30
2014,08,22,01,34,17.30
2014,08,22,01,35,17.40
2014,08,22,01,36,17.40
2014,08,22,01,37,17.40
2014,08,22,01,38,17.40
2014,08,22,01,39,17.50
2014,08,22,01,40,17.50
2014,08,22,01,41,17.50
2014,08,22,01,42,17.50
2014,08,22,01,43,17.50
2014,08,22,01,44,17.50
2014,08,22,01,45,17.60
2014,08,22,01,46,17.60
2014,08,22,01,47,17.60
2014,08,22,01,48,17.60
2014,08,22,01,49,17.60
2014,08,22,01,50,17.60
2014,08,22,01,51,17.70
2014,08,22,01,52,17.70
2014,08,22,01,53,17.70
2014,08,22,01,54,17.70
2014,08,22,01,55,17.70
2014,08,22,01,56,17.70
2014,08,22,01,57,17.70
2014,08,22,01,58,17.70
2014,08,22,01,59,17.60
2014,08,22,02,00,17.60
2014,08,22,02,01,17.60
2014,08,22,02,02,17.60
2014,08,22,02,03,17.60
2014,08,22,02,04,17.60
2014,08,22,02,05,17.60
2014,08,22,02,06,17.60
2014,08,22,02,07,17.60
2014,08,22,02,08,17.60
2014,08,22,02,09,17.60
2014,08,22,02,10,17.50
2014,08,22,02,11,17.50
2014,08,22,02,12,17.60
2014,08,22,02,13,17.60
2014,08,22,02,14,17.60
2014,08,22,02,15,17.60
2014,08,22,02,16,17.60
2014,08,22,02,17,17.60
2014,08,22,02,18,17.60
2014,08,22,02,19,17.60
2014,08,22,02,20,17.60
2014,08,22,02,21,17.60
2014,08,22,02,22,17.50
2014,08,22,02,23,17.50
2014,08,22,02,24,17.50
2014,08,22,02,25,17.50
2014,08,22,02,26,17.50
2014,08,22,02,27,17.50
2014,08,22,02,28,17.40
2014,08,22,02,29,17.40
2014,08,22,02,30,17.40
2014,08,22,02,31,17.40
2014,08,22,02,32,17.40
2014,08,22,02,33,17.40
2014,08,22,02,34,17.40
2014,08,22,02,35,17.30
2014,08,22,02,36,17.30
2014,08,22,02,37,17.30
2014,08,22,02,38,17.20
2014,08,22,02,39,17.20
2014,08,22,02,40,17.20
2014,08,22,02,41,17.20
2014,08,22,02,42,17.20
2014,08,22,02,43,17.10
2014,08,22,02,44,17.10
2014,08,22,02,45,17.10
2014,08,22,02,46,17.10
2014,08,22,02,47,17.10
2014,08,22,02,48,17.10
2014,08,22,02,49,17.10
2014,08,22,02,50,17.00
2014,08,22,02,51,17.00
2014,08,22,02,52,17.00
2014,08,22,02,53,17.00
2014,08,22,02,54,17.00
2014,08,22,02,55,17.00
2014,08,22,02,56,17.00
2014,08,22,02,57,17.10
2014,08,22,02,58,17.10
2014,08,22,02,59,17.20
2014,08,22,03,00,17.20
2014,08,22,03,01,17.30
2014,08,22,03,02,17.30
2014,08,22,03,03,17.30
2014,08,22,03,04,17.30
2014,08,22,03,05,17.40
2014,08,22,03,06,17.40
2014,08,22,03,07,17.40
2014,08,22,03,08,17.40
2014,08,22,03,09,17.50
2014,08,22,03,10,17.50
2014,08,22,03,11,17.50
2014,08,22,03,12,17.50
2014,08,22,03,13,17.50
2014,08,22,03,14,17.50
2014,08,22,03,15,17.40
2014,08,22,03,16,17.40
2014,08,22,03,17,17.40
2014,08,22,03,18,17.30
2014,08,22,03,19,17.30
2014,08,22,03,20,17.30
2014,08,22,03,21,17.30
2014,08,22,03,22,17.20
2014,08,22,03,23,17.20
2014,08,22,03,24,17.20
2014,08,22,03,25,17.10
2014,08,22,03,26,17.10
2014,08,22,03,27,17.10
2014,08,22,03,28,17.10
2014,08,22,03,29,17.10
2014,08,22,03,30,17.10
2014,08,22,03,31,17.10
2014,08,22,03,32,17.10
2014,08,22,03,33,17.10
2014,08,22,03,34,17.10
2014,08,22,03,35,17.10
2014,08,22,03,36,17.10
2014,08,22,03,37,17.10
2014,08,22,03,38,17.10
2014,08,22,03,39,17.10
2014,08,22,03,40,17.00
2014,08,22,03,41,17.00
2014,08,22,03,42,16.90
2014,08,22,03,43,16.90
2014,08,22,03,44,16.90
2014,08,22,03,45,16.90
2014,08,22,03,46,16.90
2014,08,22,03,47,16.90
2014,08,22,03,48,16.80
2014,08,22,03,49,16.80
2014,08,22,03,50,16.80
2014,08,22,03,51,16.80
2014,08,22,03,52,16.80
2014,08,22,03,53,16.80
2014,08,22,03,54,16.80
2014,08,22,03,55,16.80
2014,08,22,03,56,16.80
2014,08,22,03,57,16.80
2014,08,22,03,58,16.80
2014,08,22,03,59,16.80
2014,08,22,04,00,16.80
2014,08,22,04,01,16.90
2014,08,22,04,02,16.90
2014,08,22,04,03,16.90
2014,08,22,04,04,16.90
2014,08,22,04,05,16.90
2014,08,22,04,06,16.90
2014,08,22,04,07,16.90
2014,08,22,04,08,16.90
2014,08,22,04,09,16.90
2014,08,22,04,10,17.00
2014,08,22,04,11,17.00
2014,08,22,04,12,17.00
2014,08,22,04,13,17.10
2014,08,22,04,14,17.10
2014,08,22,04,15,17.10
2014,08,22,04,16,17.10
2014,08,22,04,17,17.10
2014,08,22,04,18,17.10
2014,08,22,04,19,17.10
2014,08,22,04,20,17.10
2014,08,22,04,21,17.10
2014,08,22,04,22,17.10
2014,08,22,04,23,17.10
2014,08,22,04,24,17.10
2014,08,22,04,25,17.10
2014,08,22,04,26,17.10
2014,08,22,04,27,17.10
2014,08,22,04,28,17.10
2014,08,22,04,29,17.10
2014,08,22,04,30,17.10
2014,08,22,04,31,17.10
2014,08,22,04,32,17.10
2014,08,22,04,33,17.10
2014,08,22,04,34,17.10
2014,08,22,04,35,17.10
2014,08,22,04,36,17.10
2014,08,22,04,37,17.10
2014,08,22,04,38,17.10
2014,08,22,04,39,17.10
2014,08,22,04,40,17.10
2014,08,22,04,41,17.10
2014,08,22,04,42,17.10
2014,08,22,04,43,17.10
2014,08,22,04,44,17.10
2014,08,22,04,45,17.00
2014,08,22,04,46,17.00
2014,08,22,04,47,17.00
2014,08,22,04,48,17.00
2014,08,22,04,49,17.00
2014,08,22,04,50,17.00
2014,08,22,04,51,17.00
2014,08,22,04,52,17.00
2014,08,22,04,53,17.10
2014,08,22,04,54,17.10
2014,08,22,04,55,17.10
2014,08,22,04,56,17.10
2014,08,22,04,57,17.10
2014,08,22,04,58,17.10
2014,08,22,04,59,17.20
2014,08,22,05,00,17.20
2014,08,22,05,01,17.20
2014,08,22,05,02,17.10
2014,08,22,05,03,17.20
2014,08,22,05,04,17.20
2014,08,22,05,05,17.20
2014,08,22,05,06,17.20
2014,08,22,05,07,17.10
2014,08,22,05,08,17.10
2014,08,22,05,09,17.10
2014,08,22,05,10,17.10
2014,08,22,05,11,17.10
2014,08,22,05,12,17.10
2014,08,22,05,13,17.10
2014,08,22,05,14,17.00
2014,08,22,05,15,17.00
2014,08,22,05,16,17.00
2014,08,22,05,17,17.00
2014,08,22,05,18,17.00
2014,08,22,05,19,17.00
2014,08,22,05,20,17.00
2014,08,22,05,21,17.00
2014,08,22,05,22,17.00
2014,08,22,05,23,17.00
2014,08,22,05,24,17.00
2014,08,22,05,25,17.00
2014,08,22,05,26,17.00
2014,08,22,05,27,17.00
2014,08,22,05,28,17.00
2014,08,22,05,29,17.10
2014,08,22,05,30,17.10
2014,08,22,05,31,17.10
2014,08,22,05,32,17.00
2014,08,22,05,33,17.00
2014,08,22,05,34,17.00
2014,08,22,05,35,17.00
2014,08,22,05,36,17.00
2014,08,22,05,37,17.00
2014,08,22,05,38,17.00
2014,08,22,05,39,17.00
2014,08,22,05,40,17.00
2014,08,22,05,41,17.00
2014,08,22,05,42,17.00
2014,08,22,05,43,17.00
2014,08,22,05,44,17.00
2014,08,22,05,45,17.00
2014,08,22,05,46,16.90
2014,08,22,05,47,16.90
2014,08,22,05,48,16.90
2014,08,22,05,49,16.90
2014,08,22,05,50,16.90
2014,08,22,05,51,16.90
2014,08,22,05,52,16.90
2014,08,22,05,53,16.80
2014,08,22,05,54,16.80
2014,08,22,05,55,16.80
2014,08,22,05,56,16.80
2014,08,22,05,57,16.80
2014,08,22,05,58,16.80
2014,08,22,05,59,16.70
2014,08,22,06,00,16.70
2014,08,22,06,01,16.70
2014,08,22,06,02,16.70
2014,08,22,06,03,16.70
2014,08,22,06,04,16.70
2014,08,22,06,05,16.60
2014,08,22,06,06,16.60
2014,08,22,06,07,16.60
2014,08,22,06,08,16.60
2014,08,22,06,09,16.60
2014,08,22,06,10,16.60
2014,08,22,06,11,16.60
2014,08,22,06,12,16.60
2014,08,22,06,13,16.60
2014,08,22,06,14,16.60
2014,08,22,06,15,16.60
2014,08,22,06,16,16.60
2014,08,22,06,17,16.60
2014,08,22,06,18,16.60
2014,08,22,06,19,16.60
2014,08,22,06,20,16.60
2014,08,22,06,21,16.60
2014,08,22,06,22,16.60
2014,08,22,06,23,16.60
2014,08,22,06,24,16.60
2014,08,22,06,25,16.60
2014,08,22,06,26,16.60
2014,08,22,06,27,16.60
2014,08,22,06,28,16.60
2014,08,22,06,29,16.60
2014,08,22,06,30,16.60
2014,08,22,06,31,16.60
2014,08,22,06,32,16.60
2014,08,22,06,33,16.60
2014,08,22,06,34,16.60
2014,08,22,06,35,16.60
2014,08,22,06,36,16.60
2014,08,22,06,37,16.60
2014,08,22,06,38,16.60
2014,08,22,06,39,16.60
2014,08,22,06,40,16.60
2014,08,22,06,41,16.60
2014,08,22,06,42,16.60
2014,08,22,06,43,16.60
2014,08,22,06,44,16.60
2014,08,22,06,45,16.50
2014,08,22,06,46,16.50
2014,08,22,06,47,16.60
2014,08,22,06,48,16.50
2014,08,22,06,49,16.60
2014,08,22,06,50,16.60
2014,08,22,06,51,16.60
2014,08,22,06,52,16.60
2014,08,22,06,53,16.60
2014,08,22,06,54,16.70
2014,08,22,06,55,16.70
2014,08,22,06,56,16.70
2014,08,22,06,57,16.70
2014,08,22,06,58,16.70
2014,08,22,06,59,16.70
2014,08,22,07,00,16.70
2014,08,22,07,01,16.70
2014,08,22,07,02,16.70
2014,08,22,07,03,16.70
2014,08,22,07,04,16.70
2014,08,22,07,05,16.70
2014,08,22,07,06,16.70
2014,08,22,07,07,16.70
2014,08,22,07,08,16.70
2014,08,22,07,09,16.70
2014,08,22,07,10,16.70
2014,08,22,07,11,16.70
2014,08,22,07,12,16.70
2014,08,22,07,13,16.70
2014,08,22,07,14,16.70
2014,08,22,07,15,16.70
2014,08,22,07,16,16.70
2014,08,22,07,17,16.70
2014,08,22,07,18,16.70
2014,08,22,07,19,16.70
2014,08,22,07,20,16.70
2014,08,22,07,21,16.70
2014,08,22,07,22,16.70
2014,08,22,07,23,16.70
2014,08,22,07,24,16.60
2014,08,22,07,25,16.60
2014,08,22,07,26,16.60
2014,08,22,07,27,16.60
2014,08,22,07,28,16.60
2014,08,22,07,29,16.60
2014,08,22,07,30,16.60
2014,08,22,07,31,16.60
2014,08,22,07,32,16.60
2014,08,22,07,33,16.70
2014,08,22,07,34,16.70
2014,08,22,07,35,16.70
2014,08,22,07,36,16.70
2014,08,22,07,37,16.70
2014,08,22,07,38,16.70
2014,08,22,07,39,16.70
2014,08,22,07,40,16.80
2014,08,22,07,41,16.80
2014,08,22,07,42,16.80
2014,08,22,07,43,16.80
2014,08,22,07,44,16.80
2014,08,22,07,45,16.80
2014,08,22,07,46,16.90
2014,08,22,07,47,16.90
2014,08,22,07,48,16.90
2014,08,22,07,49,16.90
2014,08,22,07,50,16.90
2014,08,22,07,51,16.90
2014,08,22,07,52,16.90
2014,08,22,07,53,16.90
2014,08,22,07,54,16.90
2014,08,22,07,55,16.90
2014,08,22,07,56,16.90
2014,08,22,07,57,16.90
2014,08,22,07,58,16.90
2014,08,22,07,59,16.90
2014,08,22,08,00,16.90
2014,08,22,08,01,16.90
2014,08,22,08,02,16.90
2014,08,22,08,03,16.90
2014,08,22,08,04,16.90
2014,08,22,08,05,16.90
2014,08,22,08,06,16.90
2014,08,22,08,07,16.90
2014,08,22,08,08,16.90
2014,08,22,08,09,17.00
2014,08,22,08,10,16.90
2014,08,22,08,11,16.90
2014,08,22,08,12,16.90
2014,08,22,08,13,16.90
2014,08,22,08,14,16.90
2014,08,22,08,15,16.90
2014,08,22,08,16,16.90
2014,08,22,08,17,16.90
2014,08,22,08,18,16.90
2014,08,22,08,19,16.90
2014,08,22,08,20,16.90
2014,08,22,08,21,16.90
2014,08,22,08,22,16.90
2014,08,22,08,23,16.90
2014,08,22,08,24,16.90
2014,08,22,08,25,16.90
2014,08,22,08,26,16.90
2014,08,22,08,27,16.90
2014,08,22,08,28,16.90
2014,08,22,08,29,17.00
2014,08,22,08,30,17.00
2014,08,22,08,31,17.00
2014,08,22,08,32,17.00
2014,08,22,08,33,17.00
2014,08,22,08,34,17.00
2014,08,22,08,35,17.00
2014,08,22,08,36,17.00
2014,08,22,08,37,17.00
2014,08,22,08,38,17.10
2014,08,22,08,39,17.10
2014,08,22,08,40,17.10
2014,08,22,08,41,17.10
2014,08,22,08,42,17.10
2014,08,22,08,43,17.20
2014,08,22,08,44,17.20
2014,08,22,08,45,17.20
2014,08,22,08,46,17.20
2014,08,22,08,47,17.20
2014,08,22,08,48,17.20
2014,08,22,08,49,17.20
2014,08,22,08,50,17.20
2014,08,22,08,51,17.20
2014,08,22,08,52,17.20
2014,08,22,08,53,17.20
2014,08,22,08,54,17.20
2014,08,22,08,55,17.20
2014,08,22,08,56,17.20
2014,08,22,08,57,17.20
2014,08,22,08,58,17.20
2014,08,22,08,59,17.20
2014,08,22,09,00,17.20
2014,08,22,09,01,17.20
2014,08,22,09,02,17.30
2014,08,22,09,03,17.30
2014,08,22,09,04,17.30
2014,08,22,09,05,17.40
2014,08,22,09,06,17.40
2014,08,22,09,07,17.40
2014,08,22,09,08,17.50
2014,08,22,09,09,17.50
2014,08,22,09,10,17.50
2014,08,22,09,11,17.60
2014,08,22,09,12,17.60
2014,08,22,09,13,17.60
2014,08,22,09,14,17.60
2014,08,22,09,15,17.60
2014,08,22,09,16,17.60
2014,08,22,09,17,17.70
2014,08,22,09,18,17.70
2014,08,22,09,19,17.70
2014,08,22,09,20,17.70
2014,08,22,09,21,17.70
2014,08,22,09,22,17.70
2014,08,22,09,23,17.70
2014,08,22,09,24,17.70
2014,08,22,09,25,17.70
2014,08,22,09,26,17.80
2014,08,22,09,27,17.80
2014,08,22,09,28,17.80
2014,08,22,09,29,17.80
2014,08,22,09,30,17.80
2014,08,22,09,31,17.80
2014,08,22,09,32,17.90
2014,08,22,09,33,17.90
2014,08,22,09,34,17.90
2014,08,22,09,35,17.90
2014,08,22,09,36,17.90
2014,08,22,09,37,17.90
2014,08,22,09,38,18.00
2014,08,22,09,39,18.10
2014,08,22,09,40,18.10
2014,08,22,09,41,18.20
2014,08,22,09,42,18.20
2014,08,22,09,43,18.30
2014,08,22,09,44,18.30
2014,08,22,09,45,18.30
2014,08,22,09,46,18.40
2014,08,22,09,47,18.40
2014,08,22,09,48,18.40
2014,08,22,09,49,18.40
2014,08,22,09,50,18.50
2014,08,22,09,51,18.60
2014,08,22,09,52,18.60
2014,08,22,09,53,18.70
2014,08,22,09,54,18.70
2014,08,22,09,55,18.80
2014,08,22,09,56,18.80
2014,08,22,09,57,18.80
2014,08,22,09,58,18.80
2014,08,22,09,59,18.90
2014,08,22,10,00,18.90
2014,08,22,10,01,18.90
2014,08,22,10,02,18.90
2014,08,22,10,03,18.90
2014,08,22,10,04,18.90
2014,08,22,10,05,19.00
2014,08,22,10,06,19.00
2014,08,22,10,07,19.00
2014,08,22,10,08,19.10
2014,08,22,10,09,19.10
2014,08,22,10,10,19.10
2014,08,22,10,11,19.10
2014,08,22,10,12,19.10
2014,08,22,10,13,19.20
2014,08,22,10,14,19.20
2014,08,22,10,15,19.20
2014,08,22,10,16,19.20
2014,08,22,10,17,19.20
2014,08,22,10,18,19.30
2014,08,22,10,19,19.40
2014,08,22,10,20,19.40
2014,08,22,10,21,19.50
2014,08,22,10,22,19.50
2014,08,22,10,23,19.50
2014,08,22,10,24,19.60
2014,08,22,10,25,19.60
2014,08,22,10,26,19.60
2014,08,22,10,27,19.60
2014,08,22,10,28,19.60
2014,08,22,10,29,19.60
2014,08,22,10,30,19.60
2014,08,22,10,31,19.50
2014,08,22,10,32,19.50
2014,08,22,10,33,19.60
2014,08,22,10,34,19.60
2014,08,22,10,35,19.70
2014,08,22,10,36,19.70
2014,08,22,10,37,19.80
2014,08,22,10,38,19.80
2014,08,22,10,39,19.90
2014,08,22,10,40,19.90
2014,08,22,10,41,19.90
2014,08,22,10,42,19.90
2014,08,22,10,43,19.80
2014,08,22,10,44,19.80
2014,08,22,10,45,19.80
2014,08,22,10,46,19.80
2014,08,22,10,47,19.80
2014,08,22,10,48,19.80
2014,08,22,10,49,19.90
2014,08,22,10,50,19.90
2014,08,22,10,51,19.90
2014,08,22,10,52,19.90
2014,08,22,10,53,19.90
2014,08,22,10,54,19.80
2014,08,22,10,55,19.80
2014,08,22,10,56,19.70
2014,08,22,10,57,19.70
2014,08,22,10,58,19.70
2014,08,22,10,59,19.70
2014,08,22,11,00,19.70
2014,08,22,11,01,19.70
2014,08,22,11,02,19.70
2014,08,22,11,03,19.70
2014,08,22,11,04,19.70
2014,08,22,11,05,19.60
2014,08,22,11,06,19.60
2014,08,22,11,07,19.50
2014,08,22,11,08,19.50
2014,08,22,11,09,19.50
2014,08,22,11,10,19.40
2014,08,22,11,11,19.40
2014,08,22,11,12,19.40
2014,08,22,11,13,19.40
2014,08,22,11,14,19.40
2014,08,22,11,15,19.40
2014,08,22,11,16,19.40
2014,08,22,11,17,19.50
2014,08,22,11,18,19.50
2014,08,22,11,19,19.50
2014,08,22,11,20,19.50
2014,08,22,11,21,19.50
2014,08,22,11,22,19.40
2014,08,22,11,23,19.30
2014,08,22,11,24,19.30
2014,08,22,11,25,19.30
2014,08,22,11,26,19.30
2014,08,22,11,27,19.30
2014,08,22,11,28,19.30
2014,08,22,11,29,19.30
2014,08,22,11,30,19.30
2014,08,22,11,31,19.30
2014,08,22,11,32,19.20
2014,08,22,11,33,19.20
2014,08,22,11,34,19.20
2014,08,22,11,35,19.20
2014,08,22,11,36,19.20
2014,08,22,11,37,19.20
2014,08,22,11,38,19.30
2014,08,22,11,39,19.30
2014,08,22,11,40,19.30
2014,08,22,11,41,19.40
2014,08,22,11,42,19.50
2014,08,22,11,43,19.60
2014,08,22,11,44,19.70
2014,08,22,11,45,19.70
2014,08,22,11,46,19.70
2014,08,22,11,47,19.70
2014,08,22,11,48,19.70
2014,08,22,11,49,19.70
2014,08,22,11,50,19.80
2014,08,22,11,51,19.70
2014,08,22,11,52,19.70
2014,08,22,11,53,19.80
2014,08,22,11,54,19.80
2014,08,22,11,55,19.80
2014,08,22,11,56,19.90
2014,08,22,11,57,20.00
2014,08,22,11,58,20.10
2014,08,22,11,59,20.10
2014,08,22,12,00,20.20
2014,08,22,12,01,20.20
2014,08,22,12,02,20.20
2014,08,22,12,03,20.20
2014,08,22,12,04,20.20
2014,08,22,12,05,20.20
2014,08,22,12,06,20.20
2014,08,22,12,07,20.20
2014,08,22,12,08,20.20
2014,08,22,12,09,20.10
2014,08,22,12,10,20.10
2014,08,22,12,11,20.20
2014,08,22,12,12,20.20
2014,08,22,12,13,20.20
2014,08,22,12,14,20.20
2014,08,22,12,15,20.30
2014,08,22,12,16,20.30
2014,08,22,12,17,20.30
2014,08,22,12,18,20.30
2014,08,22,12,19,20.30
2014,08,22,12,20,20.40
2014,08,22,12,21,20.50
2014,08,22,12,22,20.60
2014,08,22,12,23,20.60
2014,08,22,12,24,20.60
2014,08,22,12,25,20.60
2014,08,22,12,26,20.70
2014,08,22,12,27,20.70
2014,08,22,12,28,20.70
2014,08,22,12,29,20.80
2014,08,22,12,30,20.80
2014,08,22,12,31,20.80
2014,08,22,12,32,20.80
2014,08,22,12,33,20.80
2014,08,22,12,34,20.80
2014,08,22,12,35,20.80
2014,08,22,12,36,20.70
2014,08,22,12,37,20.60
2014,08,22,12,38,20.50
2014,08,22,12,39,20.50
2014,08,22,12,40,20.40
2014,08,22,12,41,20.50
2014,08,22,12,42,20.50
2014,08,22,12,43,20.50
2014,08,22,12,44,20.60
2014,08,22,12,45,20.60
2014,08,22,12,46,20.50
2014,08,22,12,47,20.50
2014,08,22,12,48,20.50
2014,08,22,12,49,20.60
2014,08,22,12,50,20.60
2014,08,22,12,51,20.60
2014,08,22,12,52,20.60
2014,08,22,12,53,20.70
2014,08,22,12,54,20.70
2014,08,22,12,55,20.80
2014,08,22,12,56,20.80
2014,08,22,12,57,20.80
2014,08,22,12,58,20.80
2014,08,22,12,59,20.80
2014,08,22,13,00,20.80
2014,08,22,13,01,20.80
2014,08,22,13,02,20.80
2014,08,22,13,03,20.80
2014,08,22,13,04,20.90
2014,08,22,13,05,21.00
2014,08,22,13,06,21.10
2014,08,22,13,07,21.20
2014,08,22,13,08,21.20
2014,08,22,13,09,21.30
2014,08,22,13,10,21.40
2014,08,22,13,11,21.40
2014,08,22,13,12,21.50
2014,08,22,13,13,21.50
2014,08,22,13,14,21.60
2014,08,22,13,15,21.60
2014,08,22,13,16,21.60
2014,08,22,13,17,21.60
2014,08,22,13,18,21.60
2014,08,22,13,19,21.70
2014,08,22,13,20,21.70
2014,08,22,13,21,21.70
2014,08,22,13,22,21.70
2014,08,22,13,23,21.70
2014,08,22,13,24,21.70
2014,08,22,13,25,21.70
2014,08,22,13,26,21.70
2014,08,22,13,27,21.60
2014,08,22,13,28,21.50
2014,08,22,13,29,21.50
2014,08,22,13,30,21.40
2014,08,22,13,31,21.40
2014,08,22,13,32,21.30
2014,08,22,13,33,21.20
2014,08,22,13,34,21.20
2014,08,22,13,35,21.20
2014,08,22,13,36,21.30
2014,08,22,13,37,21.30
2014,08,22,13,38,21.40
2014,08,22,13,39,21.50
2014,08,22,13,40,21.60
2014,08,22,13,41,21.60
2014,08,22,13,42,21.60
2014,08,22,13,43,21.60
2014,08,22,13,44,21.70
2014,08,22,13,45,21.60
2014,08,22,13,46,21.60
2014,08,22,13,47,21.50
2014,08,22,13,48,21.50
2014,08,22,13,49,21.40
2014,08,22,13,50,21.40
2014,08,22,13,51,21.30
2014,08,22,13,52,21.30
2014,08,22,13,53,21.30
2014,08,22,13,54,21.30
2014,08,22,13,55,21.40
2014,08,22,13,56,21.40
2014,08,22,13,57,21.40
2014,08,22,13,58,21.50
2014,08,22,13,59,21.50
2014,08,22,14,00,21.60
2014,08,22,14,01,21.60
2014,08,22,14,02,21.60
2014,08,22,14,03,21.60
2014,08,22,14,04,21.60
2014,08,22,14,05,21.60
2014,08,22,14,06,21.60
2014,08,22,14,07,21.70
2014,08,22,14,08,21.70
2014,08,22,14,09,21.80
2014,08,22,14,10,21.80
2014,08,22,14,11,21.90
2014,08,22,14,12,21.90
2014,08,22,14,13,21.90
2014,08,22,14,14,21.80
2014,08,22,14,15,21.80
2014,08,22,14,16,21.70
2014,08,22,14,17,21.60
2014,08,22,14,18,21.60
2014,08,22,14,19,21.50
2014,08,22,14,20,21.50
2014,08,22,14,21,21.40
2014,08,22,14,22,21.40
2014,08,22,14,23,21.40
2014,08,22,14,24,21.30
2014,08,22,14,25,21.30
2014,08,22,14,26,21.40
2014,08,22,14,27,21.50
2014,08,22,14,28,21.50
2014,08,22,14,29,21.60
2014,08,22,14,30,21.60
2014,08,22,14,31,21.60
2014,08,22,14,32,21.70
2014,08,22,14,33,21.70
2014,08,22,14,34,21.80
2014,08,22,14,35,21.80
2014,08,22,14,36,21.90
2014,08,22,14,37,21.90
2014,08,22,14,38,22.00
2014,08,22,14,39,22.10
2014,08,22,14,40,22.10
2014,08,22,14,41,22.10
2014,08,22,14,42,22.20
2014,08,22,14,43,22.10
2014,08,22,14,44,22.00
2014,08,22,14,45,22.00
2014,08,22,14,46,21.90
2014,08,22,14,47,21.80
2014,08,22,14,48,21.80
2014,08,22,14,49,21.80
2014,08,22,14,50,21.80
2014,08,22,14,51,21.80
2014,08,22,14,52,21.70
2014,08,22,14,53,21.70
2014,08,22,14,54,21.70
2014,08,22,14,55,21.70
2014,08,22,14,56,21.70
2014,08,22,14,57,21.70
2014,08,22,14,58,21.80
2014,08,22,14,59,21.80
2014,08,22,15,00,21.80
2014,08,22,15,01,21.80
2014,08,22,15,02,21.80
2014,08,22,15,03,21.80
2014,08,22,15,04,21.90
2014,08,22,15,05,22.00
2014,08,22,15,06,22.10
2014,08,22,15,07,22.10
2014,08,22,15,08,22.20
2014,08,22,15,09,22.30
2014,08,22,15,10,22.30
2014,08,22,15,11,22.30
2014,08,22,15,12,22.40
2014,08,22,15,13,22.40
2014,08,22,15,14,22.40
2014,08,22,15,15,22.50
2014,08,22,15,16,22.50
2014,08,22,15,17,22.60
2014,08,22,15,18,22.70
2014,08,22,15,19,22.70
2014,08,22,15,20,22.70
2014,08,22,15,21,22.80
2014,08,22,15,22,22.80
2014,08,22,15,23,22.70
2014,08,22,15,24,22.80
2014,08,22,15,25,22.80
2014,08,22,15,26,22.80
2014,08,22,15,27,22.90
2014,08,22,15,28,23.00
2014,08,22,15,29,23.00
2014,08,22,15,30,23.10
2014,08,22,15,31,23.10
2014,08,22,15,32,23.20
2014,08,22,15,33,23.20
2014,08,22,15,34,23.20
2014,08,22,15,35,23.30
2014,08,22,15,36,23.30
2014,08,22,15,37,23.30
2014,08,22,15,38,23.40
2014,08,22,15,39,23.40
2014,08,22,15,40,23.40
2014,08,22,15,41,23.50
2014,08,22,15,42,23.60
2014,08,22,15,43,23.70
2014,08,22,15,44,23.70
2014,08,22,15,45,23.70
2014,08,22,15,46,23.80
2014,08,22,15,47,23.80
2014,08,22,15,48,23.80
2014,08,22,15,49,23.80
2014,08,22,15,50,23.90
2014,08,22,15,51,23.90
2014,08,22,15,52,23.90
2014,08,22,15,53,24.00
2014,08,22,15,54,24.00
2014,08,22,15,55,24.00
2014,08,22,15,56,24.10
2014,08,22,15,57,24.10
2014,08,22,15,58,24.10
2014,08,22,15,59,24.00
2014,08,22,16,00,24.00
2014,08,22,16,01,23.90
2014,08,22,16,02,23.90
2014,08,22,16,03,23.90
2014,08,22,16,04,23.90
2014,08,22,16,05,23.80
2014,08,22,16,06,23.80
2014,08,22,16,07,23.80
2014,08,22,16,08,23.90
2014,08,22,16,09,24.00
2014,08,22,16,10,24.00
2014,08,22,16,11,24.10
2014,08,22,16,12,24.20
2014,08,22,16,13,24.20
2014,08,22,16,14,24.30
2014,08,22,16,15,24.30
2014,08,22,16,16,24.30
2014,08,22,16,17,24.30
2014,08,22,16,18,24.20
2014,08,22,16,19,24.20
2014,08,22,16,20,24.10
2014,08,22,16,21,24.10
2014,08,22,16,22,24.10
2014,08,22,16,23,24.00
2014,08,22,16,24,24.00
2014,08,22,16,25,24.00
2014,08,22,16,26,23.90
2014,08,22,16,27,23.90
2014,08,22,16,28,23.90
2014,08,22,16,29,23.90
2014,08,22,16,30,23.90
2014,08,22,16,31,23.90
2014,08,22,16,32,23.90
2014,08,22,16,33,23.80
2014,08,22,16,34,23.80
2014,08,22,16,35,23.70
2014,08,22,16,36,23.70
2014,08,22,16,37,23.70
2014,08,22,16,38,23.70
2014,08,22,16,39,23.80
2014,08,22,16,40,23.80
2014,08,22,16,41,23.80
2014,08,22,16,42,23.70
2014,08,22,16,43,23.70
2014,08,22,16,44,23.70
2014,08,22,16,45,23.80
2014,08,22,16,46,23.80
2014,08,22,16,47,23.80
2014,08,22,16,48,23.80
2014,08,22,16,49,23.70
2014,08,22,16,50,23.70
2014,08,22,16,51,23.70
2014,08,22,16,52,23.70
2014,08,22,16,53,23.70
2014,08,22,16,54,23.70
2014,08,22,16,55,23.70
2014,08,22,16,56,23.70
2014,08,22,16,57,23.70
2014,08,22,16,58,23.60
2014,08,22,16,59,23.60
2014,08,22,17,00,23.60
2014,08,22,17,01,23.60
2014,08,22,17,02,23.60
2014,08,22,17,03,23.60
2014,08,22,17,04,23.60
2014,08,22,17,05,23.60
2014,08,22,17,06,23.60
2014,08,22,17,07,23.70
2014,08,22,17,08,23.70
2014,08,22,17,09,23.80
2014,08,22,17,10,23.80
2014,08,22,17,11,23.80
2014,08,22,17,12,23.90
2014,08,22,17,13,23.90
2014,08,22,17,14,23.90
2014,08,22,17,15,23.90
2014,08,22,17,16,24.00
2014,08,22,17,17,24.00
2014,08,22,17,18,24.00
2014,08,22,17,19,24.00